Altoona, PA

11:16 AM EDT on August 23, 2019 (GMT -0400)
Altoona-Blair County

Weather History for KAOO - May, 2019

Change the Weather History Date:

Saturday, May 4, 2019

  Actual Average Record
Temperature  
Mean Temperature 65 °F 55 °F  
Max Temperature 71 °F 66 °F 87 °F (2001)
Min Temperature 59 °F 43 °F 28 °F (2002)
Degree Days  
Heating Degree Days 0 11  
Month to date heating degree days 8 44  
Since 1 July heating degree days 5562 5962  
Cooling Degree Days 0 0  
Month to date cooling degree days 8 0  
Year to date cooling degree days 8 6  
Growing Degree Days 16 (Base 50)    
Moisture  
Dew Point 60 °F    
Average Humidity 81    
Maximum Humidity 100    
Minimum Humidity 61    
Precipitation  
Precipitation 0.47 in 0.12 in 0.96 in (1990)
Month to date precipitation 0.97 0.45  
Year to date precipitation 13.78 10.92  
Sea Level Pressure  
Sea Level Pressure 29.88 in    
Wind  
Wind Speed 3 mph (West)    
Max Wind Speed 12 mph    
Max Gust Speed 14 mph    
Visibility 5 miles    
Events Fog , Rain    
T = Trace of Precipitation, MM = Missing Value Source: NWS Daily Summary

Daily Weather History Graph

Daily Weather History Graph

Search for Another Location

Airport or City:

Astronomy

May. 04, 2019 Rise Set
Actual Time 6:09 AM EDT 8:11 PM EDT
Civil Twilight 5:39 AM EDT 8:41 PM EDT
Nautical Twilight 5:03 AM EDT 9:17 PM EDT
Astronomical Twilight 4:23 AM EDT 9:57 PM EDT
Moon 6:19 AM EDT (5/4) 7:58 PM EDT (5/4)
Length of Visible Light 15h 01m
Length of Day
14h 02m
Waning Crescent, 0% of the Moon is Illuminated
May 4
Waning Crescent
May 4
New
May 11
First Quarter
May 18
Full
May 26
Last Quarter

Hourly Weather History & Observations

Time (EDT) Temp. Dew Point Humidity Pressure Visibility Wind Dir Wind Speed Gust Speed Precip Events Conditions
12:18 AM 63.0 °F 61.0 °F 93% 29.94 in 5.0 mi Calm Calm - 0.01 in Rain Light Rain
12:38 AM 63.0 °F 61.0 °F 93% 29.94 in 5.0 mi Calm Calm - 0.02 in Rain Light Rain
12:53 AM 63.0 °F 61.0 °F 93% 29.91 in 4.0 mi Calm Calm - 0.04 in Rain Light Rain
1:00 AM 62.1 °F 61.0 °F 96% 29.93 in 2.5 mi Calm Calm - 0.03 in Rain Rain
1:25 AM 62.1 °F 61.0 °F 96% 29.92 in 1.5 mi SSW 4.6 mph - 0.16 in Rain Heavy Rain
1:40 AM 62.1 °F 61.0 °F 96% 29.91 in 3.0 mi South 5.8 mph - 0.24 in Rain Light Rain
1:53 AM 62.1 °F 61.0 °F 96% 29.89 in 3.0 mi South 4.6 mph - 0.26 in Rain Light Rain
2:27 AM 62.1 °F 61.0 °F 96% 29.90 in 2.0 mi Calm Calm - 0.11 in Rain Heavy Rain
2:39 AM 62.1 °F 60.1 °F 93% 29.89 in 4.0 mi Calm Calm - 0.14 in Rain Light Rain
2:53 AM 62.1 °F 60.1 °F 93% 29.86 in 9.0 mi Calm Calm - 0.14 in   Overcast
3:30 AM 61.0 °F 59.0 °F 93% 29.88 in 0.8 mi Calm Calm - N/A   Mostly Cloudy
3:32 AM 61.0 °F 59.0 °F 93% 29.88 in 0.5 mi NW 3.5 mph - N/A Fog Fog
3:45 AM 61.0 °F 60.1 °F 97% 29.88 in 0.2 mi West 3.5 mph - N/A Fog Fog
3:53 AM 60.1 °F 59.0 °F 96% 29.85 in 0.2 mi WNW 3.5 mph - N/A Fog Fog
4:53 AM 61.0 °F 60.1 °F 97% 29.85 in 0.2 mi Calm Calm - N/A Fog Fog
5:38 AM 61.0 °F 60.1 °F 97% 29.88 in 0.2 mi Calm Calm - N/A Fog Fog
5:46 AM 61.0 °F 60.1 °F 97% 29.88 in 0.5 mi Calm Calm - N/A Fog Fog
5:53 AM 61.0 °F 60.1 °F 97% 29.86 in 0.5 mi Calm Calm - N/A Fog Fog
5:58 AM 61.0 °F 60.1 °F 97% 29.88 in 1.0 mi Calm Calm - N/A   Overcast
6:06 AM 61.0 °F 60.1 °F 97% 29.88 in 0.8 mi Calm Calm - N/A   Overcast
6:16 AM 61.0 °F 60.1 °F 97% 29.88 in 0.2 mi Calm Calm - N/A Fog Fog
6:53 AM 61.0 °F 60.1 °F 97% 29.88 in 0.5 mi Calm Calm - N/A Fog Fog
7:02 AM 61.0 °F 60.1 °F 97% 29.90 in 0.5 mi Calm Calm - N/A Fog Fog
7:08 AM 61.0 °F 60.1 °F 97% 29.90 in 1.0 mi Calm Calm - N/A   Overcast
7:26 AM 62.1 °F 61.0 °F 96% 29.91 in 2.5 mi Calm Calm - N/A   Overcast
7:32 AM 62.1 °F 61.0 °F 96% 29.91 in 3.0 mi Calm Calm - N/A   Overcast
7:41 AM 62.1 °F 61.0 °F 96% 29.91 in 4.0 mi Calm Calm - N/A   Overcast
7:50 AM 62.6 °F 60.8 °F 94% 29.91 in 3.0 mi Calm Calm - N/A   Overcast
7:53 AM 62.1 °F 61.0 °F 96% 29.90 in 3.0 mi SE 3.5 mph - N/A   Overcast
8:13 AM 62.1 °F 61.0 °F 96% 29.91 in 4.0 mi South 3.5 mph - N/A   Overcast
8:43 AM 63.0 °F 61.0 °F 93% 29.91 in 6.0 mi Calm Calm - N/A   Overcast
8:53 AM 64.0 °F 61.0 °F 90% 29.89 in 7.0 mi Calm Calm - N/A   Overcast
9:08 AM 64.0 °F 61.0 °F 90% 29.90 in 7.0 mi WNW 3.5 mph - N/A   Mostly Cloudy
9:24 AM 64.0 °F 61.0 °F 90% 29.91 in 7.0 mi Calm Calm - N/A   Scattered Clouds
9:33 AM 64.9 °F 60.1 °F 84% 29.91 in 7.0 mi Variable 3.5 mph - N/A   Mostly Cloudy
9:51 AM 66.2 °F 60.8 °F 83% 29.91 in 8.0 mi NW 6.9 mph - N/A   Scattered Clouds
9:53 AM 66.0 °F 61.0 °F 84% 29.90 in 8.0 mi WNW 4.6 mph - N/A   Scattered Clouds
10:53 AM 66.0 °F 61.0 °F 84% 29.90 in 8.0 mi West 4.6 mph - N/A   Overcast
11:37 AM 68.0 °F 62.1 °F 81% 29.91 in 9.0 mi Calm Calm - N/A   Overcast
11:53 AM 68.0 °F 60.1 °F 76% 29.88 in 9.0 mi Calm Calm - N/A   Overcast
12:53 PM 70.0 °F 60.1 °F 71% 29.86 in 9.0 mi ENE 3.5 mph - N/A   Overcast
1:04 PM 71.1 °F 60.1 °F 68% 29.87 in 10.0 mi Calm Calm - N/A   Overcast
1:53 PM 71.1 °F 59.0 °F 66% 29.84 in 10.0 mi Calm Calm - N/A   Mostly Cloudy
2:53 PM 70.0 °F 59.0 °F 68% 29.85 in 10.0 mi SSW 3.5 mph - N/A   Overcast
3:53 PM 71.1 °F 57.9 °F 63% 29.82 in 10.0 mi Calm Calm - N/A   Mostly Cloudy
4:53 PM 68.0 °F 61.0 °F 78% 29.81 in 9.0 mi SW 6.9 mph - N/A   Overcast
5:53 PM 66.9 °F 61.0 °F 81% 29.82 in 9.0 mi WNW 8.1 mph - 0.00 in   Overcast
6:53 PM 66.0 °F 57.0 °F 73% 29.81 in 10.0 mi NNW 9.2 mph - N/A   Overcast
7:53 PM 64.0 °F 57.0 °F 78% 29.82 in 10.0 mi WNW 6.9 mph - N/A   Partly Cloudy
8:53 PM 64.0 °F 55.9 °F 75% 29.82 in 10.0 mi NNW 3.5 mph - N/A   Overcast
9:53 PM 63.0 °F 55.9 °F 78% 29.84 in 10.0 mi Calm Calm - 0.01 in Rain Light Rain
10:53 PM 60.1 °F 55.9 °F 86% 29.84 in 10.0 mi NW 6.9 mph - 0.02 in Rain Light Rain
11:53 PM 60.1 °F 55.9 °F 86% 29.83 in 9.0 mi Calm Calm - 0.01 in Rain Light Rain